Flag for Germany Weather past 2 weeks in Kempten, Bavaria, Germany

Now
32 °F

Overcast.


Feels Like: 32 °F
Forecast: 18 / 40 °F
Wind: No wind

Location: Kempten

Current Time: Feb 28, 2015 at 7:10:26 AM

Latest Report: Feb 28, 2015 at 6:00 AM


Visibility: 2 mi

Pressure: 30.19 "Hg

Humidity: 98%

Dew point: 31 °F

Location of KemptenLocation

Historic Weather in Kempten — Graph

°F

Kempten temperature yesterday

Maximum temperature yesterday: 34 °F (at 5:00 PM)
Minimum temperature yesterday: 17 °F (at 5:00 AM)
Average temperature yesterday: 27 °F

Past Weeks' High & Low Weather Summary

 TemperatureHumidityPressure
High52 °F (Feb 20, 1:00 PM)98% (Feb 23, 12:00 AM)30.77 "Hg (Feb 23, 12:00 AM)
Low11 °F (Feb 16, 6:00 AM)26% (Feb 20, 1:00 PM)29.50 "Hg (Feb 21, 1:00 PM)
Average29 °F79%30.09 "Hg
* Reported Feb 13 6:00 AM — Feb 28 6:00 AM, Kempten, Weather by CustomWeather, © 2015

Note: Actual official high and low records may vary slightly from our data, if they occured in-between our weather recording intervals... More about our weather records

Advertising

Kempten weather history for previous 24 hours

 ConditionsComfort  
Time TempWeatherWind HumidityBarometerVisibility
6:00 AM
Sat, Feb 28
32 °FOvercast.No wind98%30.19 "Hg2 mi
5:00 AM32 °FLight snow. Overcast.No wind98%30.19 "Hg1 mi
3:00 AM32 °FLight snow. Low clouds.No wind96%30.19 "Hg2 mi
2:00 AM32 °FLight snow. Overcast.2 mph96%30.19 "Hg3 mi
1:00 AM33 °FLight snow. Overcast.2 mph97%30.19 "Hg2 mi
12:00 AM33 °FLight snow. Overcast.1 mph97%30.18 "Hg2 mi
11:00 PM
Fri, Feb 27
33 °FLight snow. Overcast.2 mph96%30.17 "Hg3 mi
9:00 PM33 °FLight snow. Dense fog.3 mph94%30.12 "Hg2 mi
8:00 PM33 °FLight snow. Dense fog.3 mph96%30.10 "Hg1 mi
7:00 PM33 °FSnow. Dense fog.3 mph93%30.07 "Hg1 mi
6:00 PM34 °FLight snow. Dense fog.3 mph92%30.03 "Hg2 mi
5:00 PM34 °FLight snow. Fog.3 mph93%29.99 "Hg4 mi
3:00 PM34 °FLight snow. Low clouds.2 mph93%29.93 "Hg2 mi
2:00 PM34 °FLight snow. Low clouds.1 mph91%29.92 "Hg1 mi
1:00 PM33 °FSnow. Dense fog.1 mph91%29.92 "Hg1 mi
12:00 PM32 °FSnow. Overcast.1 mph89%29.91 "Hg1 mi
11:00 AM29 °FLight snow. Overcast.2 mph73%29.92 "Hg5 mi
10:00 AM30 °FOvercast.2 mph55%29.90 "Hg28 mi
9:00 AM27 °FOvercast.1 mph61%29.91 "Hg19 mi
8:00 AM24 °FPartly sunny.1 mph71%29.93 "Hg14 mi
7:00 AM18 °FOvercast.2 mph79%29.96 "Hg19 mi
Weather by CustomWeather, © 2015

See weather overviewHow to use our weather pages